Adamsville, PA

12:16 AM EDT on September 30, 2016 (GMT -0400)
Port Meadville

Weather History for KGKJ - January, 2014

Change the Weather History Date:

Friday, January 3, 2014

  Actual Average Record
Temperature  
Mean Temperature 6 °F -  
Max Temperature 10 °F 33 °F 59 °F (2004)
Min Temperature 1 °F 19 °F -3 °F (1979)
Degree Days  
Heating Degree Days 60    
Moisture  
Dew Point -2 °F    
Average Humidity 69    
Maximum Humidity 80    
Minimum Humidity 53    
Precipitation  
Precipitation 0.00 in - - ()
Sea Level Pressure  
Sea Level Pressure 30.28 in    
Wind  
Wind Speed 8 mph (WNW)    
Max Wind Speed 13 mph    
Max Gust Speed 20 mph    
Visibility 9 miles    
Events Snow    
Averages and records for this station are not official NWS values.
T = Trace of Precipitation, MM = Missing Value Source: NWS Daily Summary

Daily Weather History Graph

Daily Weather History Graph

Search for Another Location

Airport or City:

Trip Planner

Search our weather history database for the weather conditions in past years. The results will help you decide how hot, cold, wet, or windy it might be!

Date:

Astronomy

Jan. 03, 2014 Rise Set
Actual Time 7:47 AM EST 5:03 PM EST
Civil Twilight 7:16 AM EST 5:34 PM EST
Nautical Twilight 6:41 AM EST 6:09 PM EST
Astronomical Twilight 6:08 AM EST 6:42 PM EST
Moon 9:10 AM EST (1/3) 8:13 PM EST (1/3)
Length of Visible Light 10h 17m
Length of Day
9h 15m
Waxing Crescent, 8% of the Moon is Illuminated
Jan 3
Waxing Crescent
Jan 7
First Quarter
Jan 15
Full
Jan 24
Last Quarter
Jan 30
New

Hourly Weather History & Observations

Time (EST) Temp. Windchill Dew Point Humidity Pressure Visibility Wind Dir Wind Speed Gust Speed Precip Events Conditions
12:53 AM 7.0 °F -7.5 °F 1.9 °F 80% 30.05 in 4.0 mi North 10.4 mph 19.6 mph 0.00 in Snow Light Snow
1:09 AM 6.8 °F -9.3 °F 1.4 °F 79% 29.98 in 1.8 mi North 12.7 mph - 0.00 in Snow Light Snow
1:20 AM 6.8 °F -8.6 °F 1.4 °F 79% 29.98 in 3.0 mi North 11.5 mph 18.4 mph 0.00 in Snow Light Snow
1:53 AM 6.1 °F -7.8 °F 1.0 °F 80% 30.09 in 7.0 mi North 9.2 mph 19.6 mph 0.00 in   Overcast
2:53 AM 6.1 °F -9.5 °F -0.0 °F 76% 30.13 in 6.0 mi NNW 11.5 mph 19.6 mph 0.00 in   Haze
3:53 AM 5.0 °F -8.1 °F -0.9 °F 76% 30.16 in 9.0 mi NNW 8.1 mph 17.3 mph N/A   Overcast
4:53 AM 3.0 °F -12.5 °F -2.9 °F 76% 30.19 in 10.0 mi NNW 10.4 mph 18.4 mph N/A   Mostly Cloudy
5:20 AM 3.2 °F -9.1 °F -2.2 °F 78% 30.12 in 10.0 mi NNW 6.9 mph - N/A   Scattered Clouds
5:53 AM 1.9 °F -12.9 °F -4.0 °F 76% 30.24 in 10.0 mi NNW 9.2 mph - N/A   Clear
6:53 AM 1.9 °F -9.2 °F -5.1 °F 72% 30.27 in 10.0 mi NNW 5.8 mph - N/A   Mostly Cloudy
7:53 AM 1.0 °F -6.7 °F -5.1 °F 75% 30.32 in 10.0 mi NW 3.5 mph - N/A   Partly Cloudy
8:53 AM 1.0 °F -8.7 °F -5.1 °F 75% 30.34 in 10.0 mi Variable 4.6 mph - N/A   Clear
9:53 AM 3.9 °F -3.4 °F -4.0 °F 70% 30.36 in 10.0 mi Variable 3.5 mph - N/A   Clear
10:53 AM 6.1 °F -6.8 °F -8.0 °F 53% 30.39 in 10.0 mi WNW 8.1 mph - N/A   Clear
11:53 AM 8.1 °F -4.3 °F -6.0 °F 53% 30.39 in 10.0 mi NW 8.1 mph - N/A   Clear
12:53 PM 9.0 °F 0.6 °F -5.1 °F 53% 30.39 in 10.0 mi Variable 4.6 mph - N/A   Clear
1:53 PM 9.0 °F -3.2 °F -2.9 °F 59% 30.39 in 10.0 mi WSW 8.1 mph - N/A   Clear
2:53 PM 10.0 °F 0.4 °F -2.9 °F 56% 30.38 in 10.0 mi West 5.8 mph - N/A   Clear
3:53 PM 9.0 °F 0.6 °F -2.9 °F 59% 30.41 in 10.0 mi WNW 4.6 mph - N/A   Clear
4:53 PM 9.0 °F 2.4 °F -2.0 °F 61% 30.41 in 10.0 mi SW 3.5 mph - N/A   Clear
5:53 PM 8.1 °F - -2.0 °F 64% 30.43 in 10.0 mi Calm Calm - N/A   Clear
6:53 PM 6.1 °F - -2.0 °F 69% 30.42 in 10.0 mi Calm Calm - N/A   Clear
7:53 PM 7.0 °F -1.7 °F -2.0 °F 67% 30.41 in 10.0 mi South 4.6 mph - N/A   Clear
8:53 PM 7.0 °F -5.7 °F -0.9 °F 70% 30.39 in 10.0 mi South 8.1 mph - N/A   Clear
9:53 PM 7.0 °F -1.7 °F -0.9 °F 70% 30.36 in 10.0 mi Variable 4.6 mph - N/A   Clear
10:53 PM 8.1 °F -5.3 °F -0.9 °F 67% 30.34 in 10.0 mi South 9.2 mph - N/A   Overcast
11:53 PM 9.0 °F -4.2 °F -0.0 °F 67% 30.31 in 10.0 mi South 9.2 mph - N/A   Overcast